Location: Rounton
(54.4000°N, 1.3500°W)
Time: 03:35:58
(UTC+00:00)

Vanguard 1 - Pass Details

Date: 30 November 2021
Orbit: 652 x 3830 km, 34.2° (Epoch: 17 January)

Event Time Altitude Azimuth Distance (km) Brightness Sun altitude
Exits shadow 06:23:12 - 262° (W) 6,525 13.7 -13.4°
Reaches altitude 10° 06:24:53 10° 259° (W) 6,190 13.6 -13.2°
Maximum altitude 06:36:43 22° 219° (SW) 4,252 13.1 -11.6°
Drops below altitude 10° 06:45:08 10° 175° (S) 4,238 13.7 -10.4°
Sets 06:48:52 0° 159° (SSE) 4,774 14.3 -9.9°
